This is the latest recevied weather packets stored in our database for station/object KR4BRU. If no packets are shown the sender has not sent any weather packets the latest 10 day(s).
| Time | Temp. | Humidity | Pressure | Rain* | Wind** | Luminosity | Snow |
|---|---|---|---|---|---|---|---|
| 1777634129 | 12.22° C | 65% | 1011 hPa | 0 mm | - | 12 W/m² | - |
| 1777633529 | 12.22° C | 64% | 1010.8 hPa | 0 mm | - | 6 W/m² | - |
| 1777632929 | 12.22° C | 66% | 1010.9 hPa | 0 mm | - | 3 W/m² | - |
| 1777632328 | 12.22° C | 65% | 1010.6 hPa | 0 mm | - | 1 W/m² | - |
| 1777631723 | 12.22° C | 67% | 1010.7 hPa | 0 mm | - | 0 W/m² | - |
| 1777631122 | 11.67° C | 69% | 1010.4 hPa | 0 mm | - | 0 W/m² | - |
| 1777630521 | 11.67° C | 70% | 1010.6 hPa | 0 mm | - | 0 W/m² | - |
| 1777629917 | 11.67° C | 70% | 1010.7 hPa | 0 mm | - | 0 W/m² | - |
| 1777629316 | 11.67° C | 71% | 1010.6 hPa | 0 mm | - | 0 W/m² | - |
| 1777628714 | 11.67° C | 71% | 1010.6 hPa | 0 mm | - | 0 W/m² | - |
| 1777628113 | 11.11° C | 71% | 1010.9 hPa | 0 mm | - | 0 W/m² | - |
| 1777627514 | 11.11° C | 71% | 1010.7 hPa | 0 mm | - | 0 W/m² | - |
| 1777626912 | 11.11° C | 71% | 1010.9 hPa | 0 mm | - | 0 W/m² | - |
| 1777626308 | 11.11° C | 70% | 1010.8 hPa | 0 mm | - | 0 W/m² | - |
| 1777625708 | 11.67° C | 68% | 1010.8 hPa | 0 mm | - | 0 W/m² | - |
| 1777625106 | 12.22° C | 64% | 1010.6 hPa | 0 mm | - | 0 W/m² | - |
| 1777624503 | 12.22° C | 63% | 1010.8 hPa | 0 mm | - | 0 W/m² | - |
| 1777623903 | 12.22° C | 62% | 1010.8 hPa | 0 mm | - | 0 W/m² | - |
| 1777623298 | 12.78° C | 62% | 1010.7 hPa | 0 mm | - | 0 W/m² | - |
| 1777622697 | 12.78° C | 60% | 1010.7 hPa | 0 mm | - | 0 W/m² | - |
| 1777622096 | 12.78° C | 61% | 1010.7 hPa | 0 mm | - | 0 W/m² | - |
| 1777621495 | 12.78° C | 64% | 1010.8 hPa | 0 mm | - | 0 W/m² | - |
| 1777620892 | 12.78° C | 67% | 1010.7 hPa | 0 mm | - | 0 W/m² | - |
| 1777620291 | 12.78° C | 68% | 1010.9 hPa | 0 mm | - | 0 W/m² | - |
| 1777619690 | 12.78° C | 66% | 1011 hPa | 0 mm | - | 0 W/m² | - |
* Rain latest hour (hover to see other rain measurements)
** Current wind speed in m/s (hover to see current wind gust speed)